Hourly Data Report for March 08, 2004

TORONTO CITY
ONTARIO

43°40'00.000" N
79°24'00.000" W
112.50 m
6158355
71508
XTO

Download Data

Hourly Data (March 2004)
Hourly Data Report for March 8, 2004
TIME
LST
Temp Definition
°C
Dew Point Definition
°C
Rel Hum Definition
%
Precip. Amount Definition
mm

Wind Dir Definition
10's deg

Wind Spd Definition
km/h
Visibility Definition
km
Stn Press Definition
kPa
Hmdx Definition


Wind Chill Definition


Weather Definition


00:00 0.6 0.6 100   LegendMM LegendMM LegendMM 99.21     LegendNANA
01:00 0.2 0.1 99   LegendMM LegendMM LegendMM 99.23     LegendNANA
02:00 0.1 -0.1 99   LegendMM LegendMM LegendMM 99.27     LegendNANA
03:00 -0.2 -0.4 99   LegendMM LegendMM LegendMM 99.29     LegendNANA
04:00 -0.4 -0.9 96   LegendMM LegendMM LegendMM 99.34     LegendNANA
05:00 -0.5 -1.3 94   LegendMM LegendMM LegendMM 99.44     LegendNANA
06:00 -0.7 -1.9 92   LegendMM LegendMM LegendMM 99.52     LegendNANA
07:00 -1.2 -2.4 92   LegendMM LegendMM LegendMM 99.63     LegendNANA
08:00 -0.8 -2.6 88   LegendMM LegendMM LegendMM 99.69     LegendNANA
09:00 -0.8 -3.4 83   LegendMM LegendMM LegendMM 99.77     LegendNANA
10:00 -0.4 -3.3 81   LegendMM LegendMM LegendMM 99.78     LegendNANA
11:00 -0.4 -3.9 77   LegendMM LegendMM LegendMM 99.85     LegendNANA
12:00 -0.3 -4.3 74   LegendMM LegendMM LegendMM 99.88     LegendNANA
13:00 0.8 -3.6 72   LegendMM LegendMM LegendMM 99.88     LegendNANA
14:00 0.5 -4.0 72   LegendMM LegendMM LegendMM 99.89     LegendNANA
15:00 0.8 -3.8 71   LegendMM LegendMM LegendMM 99.92     LegendNANA
16:00 0.6 -4.0 71   LegendMM LegendMM LegendMM 99.95     LegendNANA
17:00 0.2 -4.3 72   LegendMM LegendMM LegendMM 100.00     LegendNANA
18:00 0.1 -5.2 67   LegendMM LegendMM LegendMM 100.04     LegendNANA
19:00 0.2 -6.3 62   LegendMM LegendMM LegendMM 100.09     LegendNANA
20:00 0.0 -9.0 51   LegendMM LegendMM LegendMM 100.13     LegendNANA
21:00 -0.2 -9.5 49   LegendMM LegendMM LegendMM 100.16     LegendNANA
22:00 -0.6 -9.6 51   LegendMM LegendMM LegendMM 100.19     LegendNANA
23:00 -0.7 -9.2 53   LegendMM LegendMM LegendMM 100.18     LegendNANA

Notes on Data Quality.

Legend

  • E = Estimated
  • M = Missing
  • NA = Not Available*
  • [empty] = Indicates an unobserved value
Date modified: